CARBONITE 1

Satellite information

Favourite Embed

Satellite Type and Status

PAYLOADIN ORBIT

Key statistics

Satellite CARBONITE 1 at a glance.

Uptime

3810

Days in orbit

Revolutions

≈ 14.8

Per day

Orbit

SSO

Sun Synchronous Orbit

Inclination

97.6

Latest

Satellite identification and parameters

Extended collection of information and parameters for CARBONITE 1.

Object identification

Identified? True

Debris? False

Object name: CARBONITE 1

International designator: 2015-032D

Object number (NORAD): 40718

Object ID (CCSDS): 40718

Country: UNITED KINGDOM (UK)

Current information (Y/N): Y

RCS size: MEDIUM

Orbital parameters

Period: 97.117 minutes

Inclination: 97.6404 deg

SMA: 6998.82 km

Apoapsis: 630.748 km

Periapsis: 610.623 km

RAAN: 167.3743 deg

Eccentricy: 0.00143773

Argument of periapsis: 182.8579 deg

Mean anomaly: 177.2555 deg

Mean motion: 14.82741688 rev/day

Mean motion (dot): 0.00004487 rev/day2

B* drag term: 0.00056065854 1/REarth

Two-line elements (TLE)

Creation date: Dec. 12, 2025, 10:14 a.m.

Reference frame: TEME

Reference center: EARTH

Epoch: Dec. 12, 2025, 7:28 a.m. UTC

TLE line 0: 0 CARBONITE 1

TLE line 1: 1 40718U 15032D 25346.31136403 .00004487 00000-0 56066-3 0 9991

TLE line 2: 2 40718 97.6404 167.3743 0014377 182.8579 177.2555 14.82741688561648

Live tracking on map

Real-time ground track for satellite CARBONITE 1.

In-orbit conjunctions

There are no conjunctions computed for CARBONITE 1, at the moment. Check back to stay up to date, as we update our databases every day.

Go to all conjunctions

Associated space launch

The Polar Satellite Launch Vehicle (PSLV), in its thirtieth flight (PSLV-C28), will launch three identical DMC3 optical earth observation satellites. A, B and C. It will also carry two auxiliary satellites from UK. CBNT-1, a technology demonstrator earth observation micro satellite, and De-OrbitSail, a technology demonstrator nano satellite.

CARBONITE 1 was lifted into orbit during the mission ‘PSLV XL | DMC-3A, DMC-3B, DMC-3C, CBNT-1 & DeOrbitSAIL’, on board a PSLV-XL space rocket.

The launch took place on July 10, 2015, 4:28 p.m. from Satish Dhawan Space Centre First Launch Pad.

For more information about the launch, click the button.

Launch to space PSLV XL | DMC-3A, DMC-3B, DMC-3C, CBNT-1 & DeOrbitSAIL
PSLV XL | DMC-3A, DMC-3B, DMC-3C, CBNT-1 & DeOrbitSAIL

Agency: N/A

Status: Launch Successful

Launch date: July 10, 2015, 4:28 p.m. UTC

Rocket: PSLV-XL

Launch pad: Satish Dhawan Space Centre First Launch Pad

Location: Satish Dhawan Space Centre, India

...

Latest news about this satellite

There are no fresh news available about this satellite. Check back as we update our databases every day.


Newsletter sign-up

Weekly statistics, charts and insights to help you stay on top of the space industry.